(370250) = 2002 PD181 = 2008 UQ250

Discovered at Palomar on 2002-08-15 by NEAT.

Orbit

Orbit type: Main Belt

Note: WebGL enabled browser required.

epoch2023-09-13.0
epoch JD2460200.5
perihelion date2019-04-11.49884
perihelion JD2458584.99884
argument of perihelion (°)3.54794
ascending node (°)30.47369
inclination (°)3.41984
eccentricity0.1876458
perihelion distance (AU)2.4532910
Tisserand w.r.t. Jupiter3.2
ΔV w.r.t. Earth (km/sec)9.9
semimajor axis (AU)3.0199771
mean anomaly (°)303.39307
mean daily motion (°/day)0.18780120
aphelion distance (AU)3.587
period (years)5.25
P-vector [x]0.82888227
P-vector [y]0.51178107
P-vector [z]0.22590774
Q-vector [x]-0.55860450
Q-vector [y]0.73534519
Q-vector [z]0.38370362
absolute magnitude16.81
phase slope0.15
uncertainty0
referenceMPEC 2023-R13
observations used167
oppositions12
arc length (days)7697
first opposition used2002
last opposition used2023
residual rms (arc-secs)0.87
perturbers coarse indicatorM-v
perturbers precise indicator003Ek
first observation date used2002-08-08.0
last observation date used2023-09-04.0
computer nameMPCLINUX
JD of orbit computation2456612.638545
perihelion JD uncertainty (days)1.6640E-04
argument of perihelion uncertainty (°)1.0005E-04
ascending node uncertainty (°)8.8983E-05
inclination uncertainty (°)1.0652E-05
eccentricity uncertainty 8.9583E-08
perihelion distance uncertainty (AU)2.8032E-07
Minimum Orbit Intersection Distances (in AU)
for orbit epoch: 2460200.5, reference: E2023-S29
Mercury2.12563
Venus1.73027
Earth1.45881
Mars0.9939
Jupiter1.84727
Saturn6.07231
Uranus14.9907
Neptune27.1262

Observations

177 total observations over interval: 2002 08 08.34713 – 2023 09 16.275166
These data are available for download (format description).

Date (UT) J2000 RA J2000 Dec Magn Location Ref
2002 08 08.34713 21 20 42.79 -20 58 56.9 20.4 R 644 – Palomar Mountain/NEAT MPS 205517
2002 08 08.35757 21 20 42.23 -20 58 59.3 20.5 R 644 – Palomar Mountain/NEAT MPS 205517
2002 08 08.36929 21 20 41.63 -20 59 02.4 20.5 R 644 – Palomar Mountain/NEAT MPS 205517
2002 08 15.20958 21 14 52.07 -21 22 12.1   644 – Palomar Mountain/NEAT MPS 205517
2002 08 15.27877 21 14 48.45 -21 22 24.6 20.7 R 644 – Palomar Mountain/NEAT MPS 205517
2002 08 15.34182 21 14 45.14 -21 22 36.5 20.7 R 644 – Palomar Mountain/NEAT MPS 205517
2002 08 16.26943 21 13 58.19 -21 25 28.3 20.4 R 644 – Palomar Mountain/NEAT MPS 205517
2002 08 16.33689 21 13 54.64 -21 25 40.7   644 – Palomar Mountain/NEAT MPS 205517
2002 08 17.26043 21 13 08.12 -21 28 26.4   644 – Palomar Mountain/NEAT MPS 205517
2002 08 17.28608 21 13 06.79 -21 28 30.9   644 – Palomar Mountain/NEAT MPS 205517
2002 08 17.33471 21 13 04.23 -21 28 39.0   644 – Palomar Mountain/NEAT MPS 205517
2002 08 29.27645 21 03 43.10 -21 56 36.4   644 – Palomar Mountain/NEAT MPS 205517
2002 08 29.29763 21 03 42.16 -21 56 38.1   644 – Palomar Mountain/NEAT MPS 205517
2005 03 16.33213 11 13 44.37 +08 29 21.1 21.0 R G96 – Mt. Lemmon Survey MPS 286864
2005 03 16.33869 11 13 44.04 +08 29 23.0 20.7 R G96 – Mt. Lemmon Survey MPS 286864
2005 03 16.34527 11 13 43.80 +08 29 23.6 20.4 R G96 – Mt. Lemmon Survey MPS 286864
2005 03 16.35182 11 13 43.49 +08 29 25.3 20.7 R G96 – Mt. Lemmon Survey MPS 286864
2008 09 22.30047 03 17 15.28 +18 24 40.4 20.7 V G96 – Mt. Lemmon Survey MPS 264553
2008 09 22.31219 03 17 15.36 +18 24 41.6 20.6 V G96 – Mt. Lemmon Survey MPS 264553
2008 09 22.32383 03 17 15.36 +18 24 43.1 20.5 V G96 – Mt. Lemmon Survey MPS 264553
2008 09 22.33552 03 17 15.36 +18 24 44.1 20.4 V G96 – Mt. Lemmon Survey MPS 264553
2008 10 01.40793 03 16 26.32 +18 36 01.3 20.7 V G96 – Mt. Lemmon Survey MPS 264553
2008 10 01.41345 03 16 26.22 +18 36 01.5 20.8 V G96 – Mt. Lemmon Survey MPS 264553
2008 10 01.41906 03 16 26.11 +18 36 02.2 20.3 V G96 – Mt. Lemmon Survey MPS 264553
2008 10 01.42466 03 16 26.04 +18 36 02.3 20.3 V G96 – Mt. Lemmon Survey MPS 264553
2008 10 01.43027 03 16 26.00 +18 36 02.7 20.3 V G96 – Mt. Lemmon Survey MPS 264553
2008 10 27.22056 03 02 09.87 +18 24 29.4 20.0 V 691 – Steward Observatory, Kitt Peak-Spacewatch MPS 264762
2008 10 27.23822 03 02 08.97 +18 24 27.8 20.0 V 691 – Steward Observatory, Kitt Peak-Spacewatch MPS 264762
2008 10 27.25589 03 02 08.07 +18 24 26.2 20.0 V 691 – Steward Observatory, Kitt Peak-Spacewatch MPS 264762
2008 10 31.16870 02 58 50.88 +18 17 34.8   691 – Steward Observatory, Kitt Peak-Spacewatch MPS 264762
2008 10 31.18636 02 58 49.94 +18 17 33.0   691 – Steward Observatory, Kitt Peak-Spacewatch MPS 264762
2008 10 31.20402 02 58 49.02 +18 17 31.1   691 – Steward Observatory, Kitt Peak-Spacewatch MPS 264762
2008 11 07.19744 02 52 40.39 +18 03 05.9 20.8 V 691 – Steward Observatory, Kitt Peak-Spacewatch MPS 264553
2008 11 07.21505 02 52 39.37 +18 03 03.1 19.9 V 691 – Steward Observatory, Kitt Peak-Spacewatch MPS 264553
2008 11 07.23610 02 52 38.19 +18 03 00.4 19.7 V 691 – Steward Observatory, Kitt Peak-Spacewatch MPS 264553
2008 11 07.30429 02 52 34.46 +18 02 53.1 20.1 V 703 – Catalina Sky Survey MPS 264553
2008 11 07.31294 02 52 33.96 +18 02 50.3 20.9 V 703 – Catalina Sky Survey MPS 264553
2008 11 07.32160 02 52 33.42 +18 02 49.4 19.5 V 703 – Catalina Sky Survey MPS 264553
2008 11 07.33024 02 52 33.02 +18 02 48.7 19.7 V 703 – Catalina Sky Survey MPS 264553
2010 02 16.41439 10 12 31.71 +15 45 41.1 21.2 V G96 – Mt. Lemmon Survey MPS 313022
2010 02 16.42215 10 12 31.32 +15 45 42.3 21.1 V G96 – Mt. Lemmon Survey MPS 313022
2010 02 16.43002 10 12 30.92 +15 45 44.7 21.0 V G96 – Mt. Lemmon Survey MPS 313022
2010 02 16.43782 10 12 30.52 +15 45 45.9 20.9 V G96 – Mt. Lemmon Survey MPS 313022
2013 09 03.28155 00 54 51.72 +03 02 24.3 20.6 V 691 – Steward Observatory, Kitt Peak-Spacewatch MPS 474890
2013 09 03.29918 00 54 51.26 +03 02 22.3 20.6 V 691 – Steward Observatory, Kitt Peak-Spacewatch MPS 474890
2013 09 03.31683 00 54 50.80 +03 02 20.8 20.9 V 691 – Steward Observatory, Kitt Peak-Spacewatch MPS 474890
2013 09 13.27538 00 49 49.09 +02 38 46.9 20.4 V 691 – Steward Observatory, Kitt Peak-Spacewatch MPS 476164
2013 09 13.29649 00 49 48.30 +02 38 43.3 20.4 V 691 – Steward Observatory, Kitt Peak-Spacewatch MPS 476164
2013 09 13.31414 00 49 47.62 +02 38 40.1 20.5 V 691 – Steward Observatory, Kitt Peak-Spacewatch MPS 476164
2013 09 28.18056 00 39 10.06 +01 49 25.5 19.8 r I41 – Palomar Mountain--ZTF MPS 479993
2013 09 28.21304 00 39 08.45 +01 49 18.4 19.8 r I41 – Palomar Mountain--ZTF MPS 479993
2013 09 28.24576 00 39 06.85 +01 49 11.5 20.0 r I41 – Palomar Mountain--ZTF MPS 479993
2013 09 29.24623 00 38 19.15 +01 45 36.5 20.0 r I41 – Palomar Mountain--ZTF MPS 479993
2013 09 29.27919 00 38 17.51 +01 45 29.6 19.9 r I41 – Palomar Mountain--ZTF MPS 479993
2013 09 29.31225 00 38 15.87 +01 45 22.5 19.9 r I41 – Palomar Mountain--ZTF MPS 479993
2013 09 30.21481 00 37 32.78 +01 42 08.3 19.8 r I41 – Palomar Mountain--ZTF MPS 479993
2013 09 30.24749 00 37 31.15 +01 42 01.2 20.0 r I41 – Palomar Mountain--ZTF MPS 479993
2013 09 30.28041 00 37 29.51 +01 41 54.0 20.1 r I41 – Palomar Mountain--ZTF MPS 479993
2013 10 02.31715 00 35 51.20 +01 34 37.6 19.4 V G96 – Mt. Lemmon Survey MPS 479993
2013 10 02.32434 00 35 50.83 +01 34 36.3 19.1 V G96 – Mt. Lemmon Survey MPS 479993
2013 10 02.33152 00 35 50.47 +01 34 34.6 19.4 V G96 – Mt. Lemmon Survey MPS 479993
2013 10 02.33868 00 35 50.10 +01 34 32.9 19.3 V G96 – Mt. Lemmon Survey MPS 479993
2013 10 05.29603 00 33 27.33 +01 24 10.3 19.9 V 703 – Catalina Sky Survey MPS 482285
2013 10 05.30161 00 33 26.98 +01 24 07.4 20.2 V 703 – Catalina Sky Survey MPS 482285
2013 10 05.30721 00 33 26.81 +01 24 06.8 19.8 V 703 – Catalina Sky Survey MPS 482285
2013 10 05.31280 00 33 26.48 +01 24 05.1 19.5 V 703 – Catalina Sky Survey MPS 482285
2013 10 09.19491 00 30 21.42 +01 10 55.9 19.4 V G96 – Mt. Lemmon Survey MPS 482285
2013 10 09.20154 00 30 21.10 +01 10 54.6 19.8 V G96 – Mt. Lemmon Survey MPS 482285
2013 10 09.20816 00 30 20.76 +01 10 53.4 19.4 V G96 – Mt. Lemmon Survey MPS 482285
2013 10 09.21483 00 30 20.42 +01 10 52.8 19.8 V G96 – Mt. Lemmon Survey MPS 482285
2013 10 22.21356 00 21 04.50 +00 35 29.3 19.9 V G96 – Mt. Lemmon Survey MPS 483555
2013 10 22.21881 00 21 04.29 +00 35 28.9 19.7 V G96 – Mt. Lemmon Survey MPS 483555
2013 10 22.22402 00 21 04.10 +00 35 28.4 19.5 V G96 – Mt. Lemmon Survey MPS 483555
2013 10 22.22925 00 21 03.88 +00 35 27.4 19.7 V G96 – Mt. Lemmon Survey MPS 483556
2013 10 22.37279 00 20 58.566 +00 35 11.01 20.2 r F51 – Pan-STARRS 1, Haleakala MPS 483556
2013 10 22.38446 00 20 58.106 +00 35 09.44 20.3 r F51 – Pan-STARRS 1, Haleakala MPS 483556
2013 10 22.39694 00 20 57.622 +00 35 08.13 20.2 i F51 – Pan-STARRS 1, Haleakala MPS 483556
2013 10 22.40996 00 20 57.114 +00 35 06.43 20.3 i F51 – Pan-STARRS 1, Haleakala MPS 483556
2013 10 30.21894 00 16 47.35 +00 23 25.2 20.1 V G96 – Mt. Lemmon Survey MPS 485174
2013 10 30.22802 00 16 47.08 +00 23 25.0 20.3 V G96 – Mt. Lemmon Survey MPS 485174
2013 10 30.23477 00 16 46.87 +00 23 24.6 20.4 V G96 – Mt. Lemmon Survey MPS 485174
2015 01 16.54914 08 57 44.272 +22 27 33.68 21.1 w F51 – Pan-STARRS 1, Haleakala MPS 562420
2015 01 16.56144 08 57 43.629 +22 27 36.46 21.2 w F51 – Pan-STARRS 1, Haleakala MPS 562420
2015 01 16.57373 08 57 42.989 +22 27 39.14 21.1 w F51 – Pan-STARRS 1, Haleakala MPS 562420
2015 01 20.24114 08 54 33.03 +22 41 24.8 21.3 V 691 – Steward Observatory, Kitt Peak-Spacewatch MPS 567215
2015 01 20.26152 08 54 31.94 +22 41 30.0 20.9 V 691 – Steward Observatory, Kitt Peak-Spacewatch MPS 567215
2015 01 20.28188 08 54 30.84 +22 41 34.6 20.7 V 691 – Steward Observatory, Kitt Peak-Spacewatch MPS 567215
2015 02 08.25332 08 37 25.66 +23 40 56.1 20.2 V G96 – Mt. Lemmon Survey MPS 579879
2015 02 08.26133 08 37 25.23 +23 40 58.0 20.9 V G96 – Mt. Lemmon Survey MPS 579879
2015 02 08.26933 08 37 24.85 +23 40 58.8 20.6 V G96 – Mt. Lemmon Survey MPS 579879
2015 02 08.27733 08 37 24.39 +23 40 59.7 20.9 V G96 – Mt. Lemmon Survey MPS 579879
2015 02 16.28647 08 30 58.275 +23 56 32.57 21.1 w F51 – Pan-STARRS 1, Haleakala MPS 583082
